RH
53 52 54 58 59 59 57 56 54 53 50 48 46 43 40 38 34 27 18 10 31 86 99 87 92 79 84 89 80 51 39 39 30 23 17 28 44 78 92 93 88 88 86 80 84 82 72
61 61 65 66 66 64 64 63 60 57 52 47 44 44 43 41 37 32 21 13 18 90 100 99 96 79 75 89 79 48 50 38 38 32 18 32 52 93 79 66 70 54 48 50 69 79 77
65 65 70 72 69 70 66 60 52 46 41 38 37 36 34 38 39 34 27 13 77 39 89 99 87 78 71 95 72 57 46 41 52 24 19 50 97 77 67 83 75 61 65 66 55 58 60
70 78 84 78 78 68 55 53 50 46 39 35 30 25 20 18 22 27 22 17 15 100 99 100 91 97 62 73 66 49 42 54 62 22 28 68 95 68 64 65 53 82 91 84 51 69 64
85 93 90 84 77 72 64 61 58 51 40 25 18 22 18 12 7 10 16 16 10 81 99 95 68 74 89 75 65 48 45 69 61 19 37 81 96 78 59 68 88 93 93 95 86 79 89
94 88 83 82 84 90 90 89 73 49 34 25 20 41 66 22 7 63 98 99 67 56 86 93 97 99 89 74 47 46 65 79 60 24 39 62 83 48 62 87 98 88 98 96 98 82 90
97 100 93 100 100 100 100 100 90 46 77 95 60 58 78 43 12 84 100 98 99 100 98 99 84 96 79 54 49 52 77 82 75 76 75 56 86 57 68 85 87 91 99 100 84 90 99
98 98 98 98 98 97 98 95 82 61 77 83 86 62 74 64 21 19 90 97 97 97 98 92 98 98 91 84 61 58 78 86 85 91 100 100 88 65 93 99 94 96 100 98 86 89 93
98 98 98 98 97 97 97 95 92 85 88 87 78 68 64 60 48 43 63 97 97 98 85 89 100 100 97 70 70 78 85 81 100 100 99 99 83 99 99 91 98 98 99 95 98 91 95
97 98 97 97 98 97 95 91 88 90 85 77 82 86 74 61 60 52 37 78 96 98 98 96 97 94 89 73 74 74 100 96 100 89 88 93 84 93 97 90 98 98 93 98 94 99 98
97 98 98 95 98 96 92 91 88 86 86 90 88 78 75 66 50 51 36 89 96 97 97 99 95 94 77 78 96 95 94 98 99 96 100 92 96 98 96 95 98 92 96 95 86 99 99
98 98 96 95 98 81 82 87 83 82 81 84 81 77 91 96 54 70 52 97 82 98 98 98 95 96 78 95 94 88 94 89 91 98 97 90 96 93 88 89 82 95 95 88 89 98 99
98 95 38 36 48 72 61 68 74 80 80 79 78 86 90 83 67 62 63 99 97 97 97 98 94 90 79 87 99 91 92 90 98 98 98 86 94 97 100 96 80 88 98 98 98 99 98
98 49 42 42 35 55 65 82 82 80 79 83 83 77 67 71 61 65 97 98 94 98 98 100 79 86 98 90 97 99 97 98 98 93 99 98 98 99 100 99 100 84 95 99 96 97 97
88 31 29 20 40 49 65 82 79 80 96 96 99 90 69 56 54 54 83 92 97 96 96 95 97 96 98 95 95 94 97 98 98 100 99 99 98 100 99 93 88 87 94 85 94 76 84
27 34 17 21 37 50 52 58 94 97 93 83 63 61 47 32 24 76 89 97 98 97 97 98 84 95 84 88 95 98 98 98 97 95 97 98 98 95 92 89 87 85 82 86 72 96 91
26 23 23 26 32 37 43 72 95 77 69 62 33 17 23 23 47 75 96 97 96 87 81 87 76 81 77 92 98 96 93 80 85 86 91 93 98 93 90 72 77 76 72 64 62 51 86
40 20 21 23 30 42 65 85 64 58 37 18 15 22 29 64 84 91 96 97 95 83 74 80 88 76 76 87 85 88 90 84 70 76 91 89 89 86 77 69 77 79 72 65 60 58 56
31 16 18 23 32 45 56 60 59 60 53 20 16 40 53 60 94 81 97 87 90 80 73 88 92 72 74 76 84 89 77 68 61 57 70 72 73 84 77 78 69 75 61 58 60 55 51
21 12 14 21 34 34 40 46 43 49 51 39 37 56 62 71 81 97 100 85 88 88 82 86 88 67 73 79 81 87 67 64 60 59 60 63 68 80 88 72 74 73 60 52 51 61 64
24 13 15 21 37 34 30 33 38 38 40 44 48 59 62 71 78 85 84 87 93 76 83 95 84 77 76 71 80 78 60 65 63 54 50 63 66 67 68 71 63 61 61 55 54 53 67
32 13 17 20 28 35 40 41 38 34 41 43 41 51 59 62 72 86 88 94 74 88 94 94 84 86 78 75 77 79 78 78 52 60 50 56 59 68 66 60 62 53 72 58 59 58 64
26 33 18 34 22 22 32 44 38 34 44 50 50 53 57 68 69 84 94 89 80 88 91 87 90 89 60 57 71 52 46 35 34 41 53 55 61 60 69 53 65 57 55 62 61 60 66
9 33 44 51 52 31 23 32 45 40 42 49 55 59 59 60 75 77 91 88 100 86 91 77 80 79 70 58 88 71 47 39 33 32 42 66 50 48 54 63 81 54 53 54 51 55 66
6 12 31 42 50 53 45 34 37 52 44 46 51 58 57 42 57 81 84 77 72 73 78 83 76 80 82 84 88 81 75 73 51 40 39 40 64 68 78 58 50 56 48 47 60 53 56
8 7 11 26 37 48 56 39 45 54 50 53 58 56 34 40 47 83 93 91 82 75 80 70 78 72 72 74 84 77 80 75 74 78 49 50 60 66 62 67 54 57 44 45 46 58 46
11 6 8 13 27 45 55 50 45 56 61 60 58 49 31 28 57 71 73 84 77 84 76 74 80 73 75 81 83 73 74 55 73 71 68 76 62 78 70 68 62 53 45 42 47 56 37
11 7 8 10 21 37 55 50 46 56 68 65 53 35 30 30 50 54 59 78 81 75 81 68 78 79 78 77 90 84 70 77 59 68 56 73 72 72 70 69 69 47 50 47 52 45 38
10 10 6 10 12 27 43 53 48 54 66 67 48 30 35 35 42 52 65 79 88 77 75 76 88 71 73 76 79 75 81 73 72 65 67 56 59 70 62 68 59 39 44 42 42 37 34
Wind_Speed
36 36 36 38 38 38 39 38 37 36 35 33 31 30 29 28 27 25 25 25 26 29 27 27 22 21 20 21 18 24 16 17 15 15 16 13 12 10 12 9 14 24 26 28 27 30 31
37 37 39 40 39 39 39 40 38 35 35 35 35 31 30 30 29 26 24 27 27 27 30 33 21 24 25 21 21 19 15 16 15 14 15 14 12 12 17 17 21 23 25 29 29 29 29
38 38 40 40 39 39 39 39 38 38 38 37 38 35 31 30 29 27 26 26 27 33 32 25 19 27 22 13 20 17 15 14 14 13 16 12 15 15 12 13 14 18 26 26 29 29 30
37 39 40 38 37 37 36 38 40 41 40 39 38 38 35 30 27 26 26 24 25 29 28 26 27 26 25 20 18 15 14 13 14 13 14 11 14 14 13 15 18 19 23 31 20 15 18
37 39 39 39 41 44 43 42 40 41 40 39 38 32 29 28 19 18 24 21 22 36 34 28 26 32 26 20 13 12 10 11 12 11 9 7 11 11 11 12 16 16 25 26 20 14 20
37 39 41 42 45 46 43 39 37 36 36 36 34 27 23 18 13 10 7 6 15 28 32 28 26 18 17 9 7 9 8 9 11 11 9 9 10 11 12 12 15 14 19 25 19 14 18
45 48 50 50 50 39 33 31 28 31 30 28 27 23 18 16 15 20 13 8 23 25 26 20 10 16 8 4 8 9 7 8 10 7 6 5 11 11 7 14 20 22 26 28 20 23 23
47 49 49 50 47 34 30 29 25 27 26 28 27 24 17 14 18 18 20 7 5 11 15 15 14 16 14 11 9 8 8 10 6 5 3 7 16 9 13 19 23 27 30 32 25 21 18
47 49 47 47 49 39 26 31 25 23 26 26 26 23 20 11 15 18 11 4 10 10 17 12 13 15 12 11 8 9 4 4 8 7 10 12 8 11 17 15 18 20 21 21 21 13 14
49 54 50 56 51 35 28 33 22 22 22 23 21 18 17 11 12 16 12 15 4 7 8 8 11 15 15 11 7 6 4 5 4 4 5 11 6 12 16 11 10 18 9 18 15 9 9
57 46 46 52 42 29 43 27 21 21 22 21 21 20 18 14 11 10 6 4 4 13 4 9 8 7 14 13 2 4 2 5 6 5 7 10 5 9 13 14 12 15 12 9 9 14 13
56 53 59 46 38 47 29 22 22 24 23 23 20 15 14 8 7 3 1 8 7 1 2 7 9 14 19 14 8 5 4 2 4 8 11 13 16 14 13 14 14 11 12 8 10 14 4
52 58 56 44 38 31 27 25 26 26 24 21 18 17 13 8 1 2 5 10 4 2 8 9 13 17 12 12 8 6 2 4 4 4 6 8 12 14 10 8 7 10 15 2 4 3 3
56 62 50 42 35 28 28 27 26 25 22 21 21 17 15 5 3 7 6 13 2 11 11 10 14 17 7 10 5 4 3 9 7 6 7 3 1 3 4 3 4 8 7 3 4 3 1
65 54 46 35 30 28 27 27 29 29 29 20 8 4 10 14 6 7 9 6 8 9 12 15 16 8 9 5 5 6 2 1 8 3 3 5 6 10 5 9 9 5 7 9 6 6 2
54 48 40 27 26 26 29 30 33 29 18 9 7 16 23 21 16 14 12 8 12 15 21 7 3 2 7 6 3 2 4 6 6 9 6 6 4 8 7 7 8 9 12 6 3 5 3
47 42 35 23 25 27 29 30 29 28 30 23 29 40 30 22 15 9 12 14 13 17 13 10 11 7 11 5 4 5 5 6 5 2 8 7 4 6 8 7 10 14 14 7 7 2 0
40 33 27 27 26 27 28 28 29 34 30 24 33 34 24 22 13 13 12 13 10 16 13 14 13 9 9 6 8 5 2 3 5 8 6 8 5 2 5 13 15 17 16 13 5 8 11
35 22 24 24 24 26 27 27 23 22 23 22 28 27 20 15 10 11 7 6 7 14 11 14 7 9 10 6 4 5 4 7 7 5 4 4 3 1 2 6 11 11 21 9 11 4 15
29 20 19 20 20 20 23 24 23 23 22 20 23 19 16 9 6 6 7 5 17 15 13 13 11 12 10 10 6 5 6 7 11 11 7 8 10 8 6 4 7 10 19 19 17 17 22
25 18 17 16 17 17 16 18 16 15 13 9 13 11 10 10 9 7 5 14 12 13 14 14 11 9 8 6 7 6 7 8 10 11 8 8 11 13 10 8 9 12 16 24 26 17 20
23 17 16 16 11 12 13 13 12 12 11 6 3 6 6 5 8 11 11 16 14 12 12 14 11 10 5 9 8 3 4 3 5 5 7 7 6 9 10 10 11 11 12 16 22 19 19
19 18 15 16 12 7 8 11 11 10 8 7 7 7 7 8 10 9 10 11 11 12 9 13 13 5 5 7 6 4 3 3 3 3 6 7 5 4 2 4 7 5 7 11 11 17 9
21 14 14 15 16 13 7 5 7 5 6 4 4 4 6 5 4 7 13 16 10 12 12 12 9 8 8 8 10 6 5 5 4 2 1 5 5 5 3 4 3 2 4 6 10 10 10
22 17 12 15 15 15 11 7 3 2 4 5 1 3 6 5 4 7 15 11 10 9 10 9 5 8 7 8 7 5 7 6 9 5 2 2 4 4 3 4 2 2 3 4 6 6 6
21 22 15 13 17 20 14 9 3 3 2 4 4 2 6 5 5 11 16 13 11 13 11 11 8 6 6 6 5 4 4 4 3 9 8 3 2 2 2 1 2 2 1 3 3 3 1
21 19 22 13 13 19 13 7 5 1 3 6 4 3 5 7 9 16 14 12 13 15 13 11 10 7 6 5 2 1 3 3 3 4 4 5 3 1 1 2 4 5 1 4 3 2 1
21 18 18 19 11 14 14 7 2 1 4 2 3 4 6 9 9 8 7 11 14 13 10 10 9 6 4 2 1 1 1 3 3 6 5 1 1 1 2 3 4 4 5 4 2 2 3
20 17 16 19 15 10 15 8 2 1 3 3 4 5 5 6 7 9 12 9 10 11 12 12 8 5 6 5 4 3 2 5 4 3 4 4 7 4 6 5 6 6 4 4 5 5 6
Wind_Direction
329 329 330 332 330 328 326 327 326 325 322 318 316 312 305 295 289 278 269 256 242 245 254 265 260 274 275 283 280 276 287 292 288 284 284 277 263 261 259 265 256 244 260 267 271 275 263
331 332 332 331 328 328 331 330 329 327 324 322 319 316 307 299 290 283 265 255 238 226 252 253 258 277 274 283 267 275 280 289 286 283 285 276 260 234 246 248 252 271 269 265 264 260 263
332 330 329 328 328 331 332 331 331 330 328 325 320 315 310 299 291 282 271 256 231 230 240 257 259 267 261 273 267 274 277 277 284 278 288 272 240 250 256 269 275 271 275 280 272 272 270
332 329 328 328 330 331 332 331 331 330 329 325 320 314 311 302 291 280 270 258 244 224 244 246 256 268 270 268 270 267 271 275 282 278 276 234 248 261 266 281 279 285 283 280 309 277 280
329 328 327 326 327 324 323 325 327 325 325 326 323 318 310 300 292 276 275 255 242 226 234 255 254 252 267 264 255 253 257 282 289 269 258 211 243 253 276 278 287 274 269 270 295 298 262
326 326 327 322 319 318 316 318 326 328 324 318 314 317 315 304 276 232 209 177 230 222 233 230 234 236 254 245 226 243 262 284 274 261 250 232 240 260 253 246 252 271 257 277 284 292 268
330 330 327 323 319 317 313 309 324 319 318 319 311 306 309 303 268 236 190 172 204 217 227 223 209 225 224 198 226 243 263 278 254 270 258 230 248 255 276 273 278 285 285 284 284 281 277
326 321 318 318 311 304 301 321 348 320 312 305 313 307 306 304 289 275 252 206 254 192 223 234 213 220 239 243 238 243 272 271 239 226 227 226 254 292 280 265 274 275 277 282 288 288 230
324 321 317 319 297 293 292 345 354 325 312 316 313 307 306 298 288 283 286 285 324 201 226 241 217 236 244 227 222 263 290 235 235 234 234 242 249 298 284 285 283 279 277 279 272 274 227
330 329 333 326 312 288 310 344 344 322 323 318 318 326 316 304 281 285 311 278 346 184 174 214 241 227 217 198 210 234 253 165 228 229 214 262 298 265 272 288 291 287 294 269 283 227 241
331 333 333 343 315 302 348 353 337 329 324 330 331 326 313 292 276 295 282 244 293 131 163 167 178 185 182 167 186 196 187 190 182 195 241 261 256 244 249 278 275 256 288 284 255 303 297
337 330 334 344 312 342 0 351 340 341 341 336 333 332 342 326 265 336 225 138 197 71 118 114 158 151 162 158 170 157 155 189 228 264 263 267 268 268 262 255 261 242 294 300 279 289 244
347 344 350 350 349 356 358 357 351 347 343 338 333 326 328 344 50 115 146 134 170 294 114 120 147 155 140 166 172 173 190 248 234 265 265 283 276 277 278 284 263 246 302 247 242 202 37
335 350 353 359 6 8 6 360 354 349 337 321 304 279 273 263 90 142 122 147 72 90 83 103 141 132 153 143 156 193 254 258 287 251 272 319 60 35 109 63 0 267 301 300 314 36 23
344 353 1 9 9 5 5 2 357 341 347 351 24 336 208 213 147 146 130 135 27 79 110 119 125 114 130 169 133 210 236 294 29 109 14 351 32 88 94 50 14 336 327 316 298 296 130
350 0 6 9 2 5 9 9 5 18 20 33 3 82 102 117 136 139 137 43 83 84 108 77 101 115 142 153 168 209 78 12 25 42 84 15 65 71 87 65 34 11 358 351 299 339 50
3 9 7 19 16 17 17 20 37 50 44 69 104 95 92 104 113 123 45 47 88 107 108 91 72 72 115 126 64 52 54 44 85 62 39 347 58 75 46 43 49 40 13 350 303 305 184
14 16 25 36 37 43 45 53 62 58 57 86 105 94 96 106 83 59 54 50 70 115 91 83 61 89 96 71 57 65 87 113 68 70 55 67 95 84 72 57 50 34 4 4 17 345 54
21 27 29 41 50 62 65 62 72 71 74 94 97 94 95 104 66 39 46 29 42 117 97 79 64 107 102 87 76 86 79 66 38 52 83 76 45 331 143 48 52 26 25 51 44 48 16
29 23 23 35 56 69 71 70 73 74 80 94 101 93 98 84 84 63 42 59 111 102 93 72 61 85 71 48 83 84 87 75 60 65 76 64 69 71 87 78 55 43 44 60 62 67 76
28 22 17 29 59 69 67 69 77 79 84 68 80 88 103 108 84 85 78 113 114 103 86 76 64 77 60 70 54 69 93 47 39 47 64 93 86 82 78 85 77 77 67 71 72 87 99
18 22 15 14 45 62 63 63 79 96 90 82 78 110 97 115 101 93 110 119 129 108 96 87 81 58 110 87 49 92 54 73 26 43 64 71 81 74 59 75 81 74 85 91 91 91 108
5 13 8 9 7 24 59 66 76 100 83 84 97 98 75 89 127 118 122 136 116 110 109 128 110 119 95 99 86 82 41 20 12 5 49 61 54 63 63 72 87 37 67 91 100 126 127
4 358 6 13 11 359 356 44 67 108 129 94 81 111 10 62 120 144 136 140 140 139 146 149 143 133 126 128 83 58 44 29 17 353 13 45 28 36 25 29 60 104 94 107 111 125 134
360 351 342 343 350 357 337 333 8 72 163 183 202 332 332 30 108 151 154 136 142 158 144 150 136 133 103 90 48 13 356 21 357 2 327 346 37 8 41 360 96 81 169 140 136 130 156
353 359 339 324 336 347 339 302 321 1 149 141 151 333 359 25 69 142 145 164 158 152 167 171 149 163 159 97 47 5 18 347 343 352 8 17 40 24 16 10 18 260 286 178 166 148 120
348 355 353 331 332 350 357 336 306 328 130 123 109 40 12 56 123 152 161 179 165 166 179 177 179 174 150 109 44 18 327 341 340 349 340 353 13 139 317 298 276 302 162 152 187 184 36
341 349 353 351 328 347 352 346 337 342 193 132 59 27 67 90 124 152 159 157 169 175 172 188 192 192 196 194 140 278 273 293 303 288 294 221 270 281 214 237 261 328 222 228 207 259 275
331 338 351 354 342 330 346 344 354 58 219 247 357 33 104 97 117 145 160 173 185 187 188 182 195 211 213 218 223 250 301 285 268 262 285 242 215 216 221 241 283 296 254 260 261 268 284